ARG1408 SABE-SAME

Flight info

Callsign ARG1408
Flight time N/A
Altitude FL340
Route PAL9 NEPIS NIN UL405 PAPIR
Aircraft B738/M-SDE2E3FGHIRWXY/LB1

Departure

Time N/A
Airport Aeroparque Jorge Newbery (SABE)

Arrival

Time 2026-05-07 14:22
Airport Governor Francisco Gabrielli International Airport (SAME)
Time Latitude Longitude Altitude Speed Heading
2026-05-07 13:45 -33.67046 -65.62836 33958 ft 424 kts 285°
2026-05-07 13:45 -33.66241 -65.66217 33961 ft 423 kts 286°
2026-05-07 13:46 -33.64629 -65.73004 33973 ft 426 kts 285°
2026-05-07 13:46 -33.63009 -65.79814 33964 ft 426 kts 285°
2026-05-07 13:47 -33.61389 -65.86613 33959 ft 425 kts 285°
2026-05-07 13:47 -33.59762 -65.93420 33966 ft 428 kts 285°
2026-05-07 13:48 -33.58122 -66.00269 33951 ft 427 kts 285°
2026-05-07 13:48 -33.56487 -66.07078 33985 ft 427 kts 285°
2026-05-07 13:49 -33.54842 -66.13911 33970 ft 428 kts 284°
2026-05-07 13:49 -33.53195 -66.20732 33980 ft 427 kts 284°
2026-05-07 13:50 -33.51536 -66.27584 33968 ft 429 kts 284°
2026-05-07 13:50 -33.49595 -66.35578 33975 ft 428 kts 284°
2026-05-07 13:51 -33.48147 -66.41243 33978 ft 430 kts 287°
2026-05-07 13:51 -33.46045 -66.47985 33972 ft 431 kts 289°
2026-05-07 13:52 -33.43848 -66.54656 33975 ft 431 kts 288°
2026-05-07 13:52 -33.41684 -66.61362 33980 ft 433 kts 287°
2026-05-07 13:53 -33.39883 -66.68209 33972 ft 431 kts 283°
2026-05-07 13:53 -33.38248 -66.75153 33957 ft 434 kts 283°
2026-05-07 13:54 -33.36600 -66.82088 33956 ft 434 kts 283°
2026-05-07 13:54 -33.34919 -66.89010 33945 ft 435 kts 283°
2026-05-07 13:55 -33.33203 -66.95975 33947 ft 436 kts 283°
2026-05-07 13:55 -33.31477 -67.02927 33946 ft 437 kts 283°
2026-05-07 13:56 -33.29743 -67.09884 33949 ft 438 kts 283°
2026-05-07 13:56 -33.28007 -67.16825 33941 ft 438 kts 282°
2026-05-07 13:57 -33.26259 -67.23802 33947 ft 438 kts 282°
2026-05-07 13:57 -33.24475 -67.30621 33902 ft 419 kts 283°
2026-05-07 13:57 -33.23548 -67.33898 33390 ft 422 kts 283°
2026-05-07 13:58 -33.22600 -67.37194 32813 ft 423 kts 283°
2026-05-07 13:58 -33.21646 -67.40490 32403 ft 419 kts 283°
2026-05-07 13:58 -33.20694 -67.43777 31974 ft 416 kts 283°
2026-05-07 13:58 -33.19757 -67.47022 31563 ft 413 kts 282°
2026-05-07 13:59 -33.18833 -67.50230 31118 ft 411 kts 282°
2026-05-07 13:59 -33.17914 -67.53433 30689 ft 408 kts 282°
2026-05-07 13:59 -33.17001 -67.56620 30187 ft 407 kts 282°
2026-05-07 13:59 -33.16098 -67.59772 29834 ft 402 kts 281°
2026-05-07 14:00 -33.15199 -67.62905 29396 ft 400 kts 282°
2026-05-07 14:00 -33.14299 -67.66045 29012 ft 396 kts 283°
2026-05-07 14:00 -33.13413 -67.69133 28578 ft 393 kts 283°
2026-05-07 14:00 -33.12556 -67.72208 28160 ft 389 kts 281°
2026-05-07 14:01 -33.11889 -67.75299 27731 ft 383 kts 276°
2026-05-07 14:01 -33.11461 -67.78392 27359 ft 376 kts 272°
2026-05-07 14:01 -33.11178 -67.81458 27000 ft 372 kts 271°
2026-05-07 14:01 -33.10957 -67.84507 26589 ft 369 kts 270°
2026-05-07 14:02 -33.10757 -67.87568 26141 ft 367 kts 270°
2026-05-07 14:02 -33.10558 -67.90596 25794 ft 363 kts 271°
2026-05-07 14:02 -33.10356 -67.93577 25404 ft 360 kts 271°
2026-05-07 14:02 -33.10153 -67.96542 25006 ft 357 kts 272°
2026-05-07 14:03 -33.09948 -67.99477 24617 ft 354 kts 272°
2026-05-07 14:03 -33.09742 -68.02367 24265 ft 350 kts 272°
2026-05-07 14:03 -33.09537 -68.05232 23830 ft 349 kts 273°
2026-05-07 14:03 -33.09329 -68.08116 23405 ft 346 kts 273°
2026-05-07 14:04 -33.09123 -68.10960 22922 ft 344 kts 272°
2026-05-07 14:04 -33.08918 -68.13780 22466 ft 342 kts 272°
2026-05-07 14:04 -33.08711 -68.16587 22012 ft 340 kts 272°
2026-05-07 14:04 -33.08503 -68.19390 21499 ft 340 kts 272°
2026-05-07 14:05 -33.08299 -68.22163 21073 ft 337 kts 272°
2026-05-07 14:05 -33.08093 -68.24938 20619 ft 336 kts 272°
2026-05-07 14:05 -33.07885 -68.27716 20137 ft 334 kts 271°
2026-05-07 14:05 -33.07680 -68.30454 19688 ft 333 kts 271°
2026-05-07 14:06 -33.07476 -68.33193 19175 ft 333 kts 271°
2026-05-07 14:06 -33.07273 -68.35929 18663 ft 333 kts 271°
2026-05-07 14:06 -33.07067 -68.38671 18218 ft 331 kts 271°
2026-05-07 14:06 -33.06862 -68.41374 17811 ft 328 kts 271°
2026-05-07 14:07 -33.06657 -68.44060 17387 ft 326 kts 271°
2026-05-07 14:07 -33.06453 -68.46745 17006 ft 323 kts 271°
2026-05-07 14:07 -33.06252 -68.49385 16572 ft 322 kts 271°
2026-05-07 14:07 -33.06052 -68.52021 16155 ft 319 kts 272°
2026-05-07 14:08 -33.05852 -68.54634 15772 ft 316 kts 272°
2026-05-07 14:08 -33.05653 -68.57226 15377 ft 314 kts 272°
2026-05-07 14:08 -33.05457 -68.59786 14976 ft 311 kts 272°
2026-05-07 14:08 -33.05271 -68.62335 14602 ft 308 kts 271°
2026-05-07 14:09 -33.05152 -68.64892 14197 ft 307 kts 274°
2026-05-07 14:09 -33.04546 -68.67326 13735 ft 312 kts 296°
2026-05-07 14:09 -33.03151 -68.69288 13371 ft 315 kts 320°
2026-05-07 14:09 -33.01180 -68.70423 13017 ft 318 kts 344°
2026-05-07 14:10 -32.98969 -68.70525 12650 ft 321 kts
2026-05-07 14:10 -32.96908 -68.69574 12305 ft 321 kts 32°
2026-05-07 14:10 -32.95315 -68.67721 11898 ft 323 kts 57°
2026-05-07 14:10 -32.94518 -68.65278 11780 ft 312 kts 81°
2026-05-07 14:11 -32.94418 -68.62717 11369 ft 312 kts 93°
2026-05-07 14:11 -32.94572 -68.60148 11010 ft 309 kts 97°
2026-05-07 14:11 -32.94856 -68.57634 10792 ft 302 kts 99°
2026-05-07 14:11 -32.95155 -68.55189 10538 ft 298 kts 99°
2026-05-07 14:12 -32.95452 -68.52772 10278 ft 293 kts 99°
2026-05-07 14:12 -32.95752 -68.50377 9886 ft 294 kts 99°
2026-05-07 14:12 -32.96389 -68.48082 9572 ft 291 kts 122°
2026-05-07 14:12 -32.97735 -68.46358 9302 ft 283 kts 149°
2026-05-07 14:13 -32.99534 -68.45553 9046 ft 273 kts 176°
2026-05-07 14:13 -33.01370 -68.45816 8802 ft 264 kts 204°
2026-05-07 14:13 -33.02836 -68.47051 8549 ft 257 kts 232°
2026-05-07 14:13 -33.03582 -68.48922 8309 ft 252 kts 261°
2026-05-07 14:14 -33.03576 -68.50981 8073 ft 250 kts 276°
2026-05-07 14:14 -33.03399 -68.53048 7813 ft 250 kts 274°
2026-05-07 14:14 -33.03345 -68.55101 7566 ft 248 kts 271°
2026-05-07 14:14 -33.03328 -68.57145 7325 ft 246 kts 271°
2026-05-07 14:15 -33.03320 -68.59161 7082 ft 242 kts 271°
2026-05-07 14:15 -33.03312 -68.61150 6853 ft 238 kts 270°
2026-05-07 14:15 -33.03280 -68.63097 6673 ft 233 kts 272°
2026-05-07 14:15 -33.03250 -68.64996 6498 ft 227 kts 271°
2026-05-07 14:16 -33.03237 -68.66861 6326 ft 222 kts 272°
2026-05-07 14:16 -33.03242 -68.68661 6166 ft 215 kts 271°
2026-05-07 14:16 -33.03264 -68.70412 5989 ft 209 kts 271°
2026-05-07 14:16 -33.03290 -68.72129 5814 ft 207 kts 271°
2026-05-07 14:17 -33.03310 -68.73827 5639 ft 204 kts 272°
2026-05-07 14:17 -33.03249 -68.75499 5469 ft 202 kts 284°
2026-05-07 14:17 -33.02655 -68.76968 5301 ft 197 kts 309°
2026-05-07 14:17 -33.01687 -68.78119 5125 ft 194 kts 327°
2026-05-07 14:18 -33.00530 -68.78904 4985 ft 189 kts 341°
2026-05-07 14:18 -32.99311 -68.79277 4948 ft 173 kts 356°
2026-05-07 14:18 -32.98146 -68.79360 4956 ft 166 kts
2026-05-07 14:18 -32.96973 -68.79411 4817 ft 169 kts
2026-05-07 14:19 -32.95798 -68.79427 4571 ft 167 kts
2026-05-07 14:19 -32.94663 -68.79427 4335 ft 160 kts
2026-05-07 14:19 -32.93579 -68.79422 4130 ft 150 kts
2026-05-07 14:19 -32.92539 -68.79409 3959 ft 149 kts
2026-05-07 14:20 -32.91496 -68.79396 3739 ft 149 kts
2026-05-07 14:20 -32.90463 -68.79383 3531 ft 150 kts
2026-05-07 14:20 -32.89428 -68.79368 3331 ft 149 kts
2026-05-07 14:20 -32.88401 -68.79353 3131 ft 148 kts
2026-05-07 14:21 -32.87375 -68.79340 2935 ft 147 kts
2026-05-07 14:21 -32.86342 -68.79325 2734 ft 147 kts
2026-05-07 14:21 -32.85320 -68.79312 2540 ft 147 kts
2026-05-07 14:21 -32.84297 -68.79298 2348 ft 147 kts
2026-05-07 14:22 -32.83167 -68.79285 2328 ft 76 kts
2026-05-07 14:22 -32.82915 -68.79282 2326 ft 37 kts
2026-05-07 14:22 -32.82667 -68.79278 2321 ft 29 kts
2026-05-07 14:22 -32.82599 -68.79274 2320 ft 7 kts
2026-05-07 14:23 -32.82554 -68.79293 2319 ft 7 kts 307°
2026-05-07 14:23 -32.82547 -68.79352 2319 ft 7 kts 267°
2026-05-07 14:23 -32.82567 -68.79399 2319 ft 6 kts 229°
2026-05-07 14:23 -32.82591 -68.79428 2320 ft 4 kts 225°
2026-05-07 14:24 -32.82613 -68.79455 2320 ft 6 kts 225°
2026-05-07 14:24 -32.82639 -68.79487 2321 ft 5 kts 230°
2026-05-07 14:24 -32.82662 -68.79534 2321 ft 8 kts 246°
2026-05-07 14:24 -32.82675 -68.79602 2322 ft 9 kts 269°
2026-05-07 14:25 -32.82677 -68.79681 2322 ft 10 kts 253°
2026-05-07 14:25 -32.82733 -68.79706 2323 ft 9 kts 184°
2026-05-07 14:25 -32.82785 -68.79708 2324 ft 3 kts 180°
2026-05-07 14:25 -32.82800 -68.79723 2324 ft 4 kts 254°
2026-05-07 14:26 -32.82804 -68.79755 2324 ft 4 kts 268°
2026-05-07 14:26 -32.82804 -68.79771 2324 ft 0 kts 269°